User: anonymous   Login
Location: Unspecified
(0.0000°N, 0.0000°E)
Time: 06:42:21
(UTC+00:00)
Language:

RS-15 - Orbit

View from above orbital plane
View from above orbital plane
View from above satellite
View from above satellite

Ground track
Ground track

The orbit data is extracted from the following two-line orbital elements,

1 23439U 94085A   18173.56138622 -.00000025 +00000-0 +50969-3 0  9990
2 23439 064.8184 340.1412 0157105 181.0855 242.5973 11.27567339967172
Epoch (UTC): 22 June 2018 13:28:23
Eccentricity: 0.0157105
inclination: 64.8184°
perigee height: 1890 km
apogee height: 2154 km
right ascension of ascending node: 340.1412°
argument of perigee: 181.0855°
revolutions per day: 11.27567339
mean anomaly at epoch: 242.5973°
orbit number at epoch: 96717

The dashed part of the orbit path shows where the satellite is in the earth's shadow,  

DLR